Home > Weather > Londrina > Past weeks

Flag for Brazil Past Weather in Londrina, Paraná, Brazil — Yesterday and Last 2 Weeks

Now
66 °F

Broken clouds.


Feels Like: 66 °F
Forecast: 60 / 67 °F
Wind: 9 mph from Northeast

Location: Londrina Aeroporto

Current Time: May 29, 2016 at 12:30:33 PM

Latest Report: May 29, 2016 at 12:00 PM


Visibility: N/A

Pressure: 30.09 "Hg (28.00 "Hg at 615m altitude)

Humidity: 83%

Dew Point: 61 °F

Location of LondrinaLocation

Past Weather in Londrina — Graph

°F

Londrina Temperature Yesterday

Maximum temperature yesterday: 75 °F (at 2:00 PM)
Minimum temperature yesterday: 43 °F (at 9:00 PM)
Average temperature yesterday: 65 °F

High & Low Weather Summary for the Past Weeks

 TemperatureHumidityPressure
High86 °F (May 22, 4:00 AM)100% (May 16, 7:00 AM)30.36 "Hg (May 16, 7:00 AM)
Low43 °F (May 28, 9:00 PM)40% (May 23, 3:00 PM)29.92 "Hg (May 16, 6:00 AM)
Average65 °F82%30.12 "Hg
* Reported May 14 11:00 AM — May 29 11:00 AM, Londrina, Weather by CustomWeather, © 2016

Note: Actual official high and low records may vary slightly from our data, if they occured in-between our weather recording intervals... More about our weather records

Advertising

Londrina Weather History for the Previous 24 Hours

Scroll right to see more
 ConditionsComfort  
Time TempWeatherWind HumidityBarometerVisibility
11:00 AM
Sun, May 29
63 °FBroken clouds.8 mph100%30.12 "HgN/A
10:00 AM63 °FLight rain. Broken clouds.8 mph94%30.15 "Hg2 mi
9:00 AM61 °FDrizzle. Partly sunny.7 mph100%30.12 "Hg1 mi
8:00 AM61 °FFog.6 mph100%30.12 "Hg2 mi
7:00 AM61 °FDrizzle. Low clouds.7 mph100%30.12 "Hg1 mi
6:00 AM61 °FFog.6 mph94%30.09 "Hg1 mi
5:00 AM61 °FFog.2 mph100%30.09 "Hg2 mi
4:00 AM61 °FLight rain. Fog.7 mph100%30.09 "Hg1 mi
3:00 AM61 °FLight rain. Fog.5 mph100%N/A1 mi
2:00 AM61 °FRain. Fog.6 mph100%N/A1 mi
1:00 AM61 °FRain. Mostly cloudy.9 mph100%30.12 "Hg1 mi
12:00 AM61 °FThunderstorms. Fog.7 mph100%30.15 "Hg1 mi
11:00 PM
Sat, May 28
61 °FLight rain. Fog.7 mph100%30.15 "Hg1 mi
10:00 PM61 °FFog.6 mph94%30.15 "Hg0 mi
9:00 PM43 °FThunderstorms. Overcast.6 mph100%30.15 "Hg4 mi
8:00 PM61 °FThunderstorms. Partly cloudy.9 mph94%30.15 "Hg2 mi
7:00 PM68 °FThundershowers. Passing clouds.6 mph83%30.12 "HgN/A
6:00 PM70 °FPassing clouds.5 mph83%30.09 "HgN/A
5:00 PM72 °FPassing clouds.6 mph73%30.09 "HgN/A
4:00 PM73 °FScattered clouds.9 mph69%30.09 "HgN/A
3:00 PM75 °FScattered clouds.9 mph65%30.09 "HgN/A
2:00 PM75 °FPassing clouds.7 mph65%30.12 "HgN/A
1:00 PM73 °FPassing clouds.9 mph69%30.15 "HgN/A
12:00 PM73 °FPassing clouds.8 mph69%30.18 "HgN/A
Weather by CustomWeather, © 2016

See weather overviewHow to use our weather pages